User: anonymous   Login
Location: Goodsell Observatory
(44.4617°N, 93.1522°W)
Time: 23:50:37
(UTC-05:00)
Language:

Hubble Space Telescope - Orbit

View from above orbital plane
View from above orbital plane
View from above satellite
View from above satellite

Ground track
Ground track

The orbit data is extracted from the following two-line orbital elements,

1 20580U 90037B   18111.51233580 +.00000553 +00000-0 +22926-4 0  9991
2 20580 028.4687 129.7537 0002458 248.6624 244.1611 15.09021488336815
Epoch (UTC): 21 April 2018 12:17:45
Eccentricity: 0.0002458
inclination: 28.4687°
perigee height: 537 km
apogee height: 541 km
right ascension of ascending node: 129.7537°
argument of perigee: 248.6624°
revolutions per day: 15.09021488
mean anomaly at epoch: 244.1611°
orbit number at epoch: 33681

The dashed part of the orbit path shows where the satellite is in the earth's shadow,  

DLR